Retour au catalogue

STARLINK-37789

ActifCommunicationsSSO
NORAD 69495·PAYLOAD·🇺🇸 United States

Lancé Jun 11, 2026 depuis Vandenberg Space Force Base

Loading…

Prochains Passages (prochaines 24 heures)

TLE

FraisSource: CelesTrak SupGP

Époque: Sep 15, 2026, 04:37 UTC

1 69495C 26131T   26258.19284722 -.00057691  00000+0 -17912-2 0  2583
2 69495  97.2835 279.1778 0001343  92.2873  31.6592 15.33462667    12

Suivez STARLINK-37789 en temps réel avec AllMySat

Download on the App Store